Regional Weather Roundup
Issued by NWS

Home | Current Version | Previous Version | Graphics & Text | Print | Product List | Glossary On
Versions: 1 2 3 4 5 6 7 8 9 10 11 12 13 14 15 16 17 18 19 20 21 22 23 24 25 26 27 28 29 30 31 32 33 34 35 36 37 38 39 40 41 42 43 44 45 46 47 48 49 50
072
ASUS45 KBOU 222310
RWRCO

WEATHER ROUNDUP FOR COLORADO
NATIONAL WEATHER SERVICE DENVER/BOULDER CO
400 PM MST MON JAN 22 2018

NOTE: "FAIR" INDICATES FEW OR NO CLOUDS BELOW 12000 FEET WITH NO
SIGNIFICANT WEATHER AND/OR OBSTRUCTIONS TO VISIBILITY.

COZ001>005-013-030-031-230000-
...NORTHWEST COLORADO...

CITY           SKY/WX    TMP DP  RH WIND       PRES   REMARKS
CRAIG          FAIR      22  10  60 CALM      30.22S
HAYDEN         FAIR      18   9  68 CALM      30.22R
MEEKER         FAIR      20  11  68 CALM      30.21R
RABBIT EARS PA FAIR       9   5  85 W9G16     30.08S WCI  -5
STEAMBOAT SPGS PTSUNNY   19   9  64 CALM      30.20S
WALDEN         FAIR      16   3  57 S7        30.13R WCI   6
$$

COZ006>008-011-230000-
...WEST CENTRAL VALLEYS...

CITY           SKY/WX    TMP DP  RH WIND       PRES   REMARKS
GRAND JUNCTION FAIR      27  21  78 N5        30.27S WCI  22
MONTROSE       FAIR      34  10  37 N6        30.24S WCI  29
EAGLE          FAIR      29  11  47 CALM      30.20F
RIFLE          FAIR      30  15  53 W9        30.24R WCI  22
DELTA          FAIR      38   7  28 CALM      30.24F
NUCLA          FAIR      32  14  47 CALM      30.27R
$$

COZ017>023-064>068-230000-
...SOUTHWEST COLORADO...

CITY           SKY/WX    TMP DP  RH WIND       PRES   REMARKS
DURANGO        FAIR      28  18  66 E7        30.19S WCI  21
CORTEZ         FAIR      35  15  44 W8        30.22R WCI  29
PAGOSA SPRINGS FAIR      26  13  57 CALM      30.19S
TELLURIDE      FAIR      26   2  34 CALM      30.18S
WOLF CREEK PAS FAIR      14   1  57 SW9       30.17R WCI   2
$$

COZ009-010-012-014-032>034-037-058>063-230000-
...CENTRAL COLORADO...

CITY           SKY/WX    TMP DP  RH WIND       PRES   REMARKS
ASPEN          FAIR      25   4  40 SW5       30.15S WCI  19
BUENA VISTA    FAIR      31  -1  26 NW12      30.09R WCI  21
COPPER MTN     NOT AVBL
BERTHOUD PASS  HAZE       1  -9  60 NW28G35   29.98S VSB 1/4 WCI -23
COTTONWOOD PAS FAIR      32 -17  11 W17G26    30.08R WCI  21
GUNNISON       FAIR      25   9  50 E5        30.18S WCI  19
KREMMLING      FAIR      27  10  50 SE3       30.19S
LEADVILLE      FAIR      20   0  41 NW8       30.08R WCI  10
MONARCH PASS     N/A      9   5  85 SW21      30.18R WCI -11
SALIDA         FAIR      32   8  36 SW13      30.17S WCI  22
SUNLIGHT       PTSUNNY   12  10  92 MISG      30.15S
WILKERSON PASS FAIR      19 -11  25 NW9G21    30.06R WCI   9
$$

COZ069>075-230000-
...SAN LUIS VALLEY/SANGRE DE CRISTO MOUNTAINS...

CITY           SKY/WX    TMP DP  RH WIND       PRES   REMARKS
ALAMOSA        FAIR      28   3  34 NE3       30.15R
DEL NORTE      FAIR      31   4  31 E9        30.14R WCI  23
LA VETA PASS   FAIR      18   7  62 SW24        N/A  WCI   0
SAGUACHE       FAIR      32   3  29 NW8       30.13S WCI  25
$$

COZ035-036-038>040-230000-
...NORTHERN COLORADO FRONT RANGE...

CITY           SKY/WX    TMP DP  RH WIND       PRES   REMARKS
DENVER INTL AP FAIR      40   1  19 N6        30.01R
DMNS CITY PARK NOT AVBL
AURORA         MOSUNNY   39  10  30 NE3       30.02R
FRONT RANGE AP MOSUNNY   39  12  33 NW7       30.02R
ERIE MUNI ARPT FAIR      41  14  33 SE5       30.05S
BOULDER MUN AP FAIR      41   5  22 W12       30.00R
CENTENNIAL     FAIR      39   4  23 NW13      30.01R
BROOMFIELD     MOSUNNY   37   9  30 W24       30.01R
FORT COLLINS   FAIR      36  16  44 S9        30.01R
LONGMONT       FAIR      42  14  32 E7        30.02S
$$

COZ041-046-047-076>085-087-088-230000-
...PIKES PEAK/PALMER DIVIDE AND SOUTHERN FOOTHILLS...

CITY           SKY/WX    TMP DP  RH WIND       PRES   REMARKS
COLO. SPRINGS  FAIR      42   8  24 N9        30.03R
A. F. ACADEMY  FAIR      36   6  28 N10       30.01R
SCHRIEVER AFB  FAIR      40   2  20 N8        30.03R
CHEYENNE MTN   FAIR      36   1  22 W8        29.98R
ELLICOTT         N/A    N/A N/A N/A N15       30.02R
FALCON         FAIR      37  -1  20 NW7       30.04R
FORT CARSON    FAIR      45   3  17 SE5       30.01R
LIMON          FAIR      33  15  47 N10       30.01R WCI  25
MONUMENT HILL  FAIR      30   5  34 NW7       30.02R WCI  23
CANON CITY     FAIR      45  14  29 W14G20    30.03R
WALSENBURG     NOT AVBL
TRINIDAD       FAIR      45   4  18 NW14      30.05R
$$

COZ042>045-048>051-090-091-230000-
...NORTHEAST COLORADO...

CITY           SKY/WX    TMP DP  RH WIND       PRES   REMARKS
GREELEY ARPT   FAIR      36  19  50 N17       30.01R
AKRON          FAIR      32  17  54 NW23      30.00R WCI  19
BURLINGTON     FAIR      29  19  66 NW12      29.99R WCI  19
WRAY           FAIR      34  19  55 NW18G26   30.00R WCI  23
YUMA           FAIR      32  19  59 NW16G22   29.99R WCI  21
STERLING       FAIR      36  21  55 NW21G26   29.99R
HOLYOKE        FAIR      36  21  55 NW14      29.98R
FORT MORGAN    FAIR      37  16  42 NW15G29   30.02R
$$

COZ086-089-092>099-230000-
...SOUTHEAST COLORADO...

CITY           SKY/WX    TMP DP  RH WIND       PRES   REMARKS
PUEBLO         FAIR      50   3  14 W9        30.02R
LA JUNTA       FAIR      50   6  16 N13       30.03R
LAMAR          FAIR      42  18  37 NW9       30.02R
SPRINGFIELD      N/A     39  14  36 NW9       30.04R
$$




USA.gov is the U.S. government's official web portal to all federal, state and local government web resources and services.